Skip Page Navigation
NASA JPL Caltech
NASA Logo - Jet Propulsion Laboratory + View the NASA Portal
+ Near-Earth Object (NEO) Program
Search JPL
JPL Home Earth Solar System Stars & Galaxies Technology
JPL Solar System Dynamics
BODIES ORBITS EPHEMERIDES TOOLS PHYSICAL DATA DISCOVERY FAQ SITE MAP
JPL Small-Body Database Browser
Search: [ help ]  
10547 Yosakoi (1992 JF)
Classification: Main-belt Asteroid          SPK-ID: 2010547
Ephemeris | Orbit Diagram | Orbital Elements | Physical Parameters | Discovery Circumstances ]

[ show orbit diagram ]
Orbital Elements at Epoch 2456800.5 (2014-May-23.0) TDB
Reference: JPL 2 (heliocentric ecliptic J2000)
 Element Value Uncertainty (1-sigma)   Units 
e .2176435682727123 4.5743e-08  
a 2.293145797755999 1.541e-08 AU
q 1.794057363762808 1.059e-07 AU
i 4.686783045093716 6.5291e-06 deg
node 56.25519970144914 6.3734e-05 deg
peri 235.2647239127137 6.6237e-05 deg
M 79.60593026821601 1.8412e-05 deg
tp 2456520.028427203936
(2013-Aug-15.52842720)
6.3348e-05 JED
period 1268.369904935298
3.47
1.2786e-05
3.501e-08
d
yr
n .2838288724757816 2.8611e-09 deg/d
Q 2.79223423174919 1.8764e-08 AU
  Orbit Determination Parameters
   # obs. used (total)      938  
   data-arc span      20414 days (55.89 yr)  
   first obs. used      1957-04-28  
   last obs. used      2013-03-19  
   planetary ephem.      DE431  
   SB-pert. ephem.      SB431-BIG16  
   condition code      0  
   fit RMS      .50031  
   data source      ORB  
   producer      Otto Matic  
   solution date      2014-Jun-09 19:51:03  

Additional Information
 Earth MOID = .782318 AU 
 T_jup = 3.561 
[ show covariance matrix ]

Ephemeris | Orbit Diagram | Orbital Elements | Physical Parameters | Discovery Circumstances ]

Physical Parameter Table
Parameter Symbol Value Units Sigma Reference Notes
absolute magnitude H 13.8 mag n/a MPO256943  

10547 Yosakoi           Discovered 1992 May 2 by T. Seki at Geisei.
Yosakoi is a popular Japanese folk song, loved and sung by the people of Kochi prefecture since the mid-nineteenth century. The song tells of forbidden love between a monk and a girl.
NOTE: some special characters may not display properly (any characters within {} are an attempt to place the proper accent above a character)
Reference: 20070402/MPCPages.arcLast Updated: 2007-07-05

Alternate Designations
 1992 JF = 1971 FH1 = 1985 GF1 = 1989 RT2 
Ephemeris | Orbit Diagram | Orbital Elements | Physical Parameters | Discovery Circumstances ]
ABOUT SSD CREDITS/AWARDS PRIVACY/COPYRIGHT GLOSSARY LINKS
FirstGov 2014-Jul-29 08:42 UT
(server date/time)  
NASA Home Page
Site Manager:   Donald K. Yeomans
Webmaster  Alan B. Chamberlin